Point Mugu NAWC, CA

7:24 AM PST on December 10, 2016 (GMT -0800)
Point Mugu Naval Air Station

Weather History for KNTD - June, 2013

Change the Weather History Date:

Monday, June 24, 2013

  Actual Average Record
Temperature  
Mean Temperature 67 °F -  
Max Temperature 72 °F 67 °F 77 °F (2015)
Min Temperature 62 °F 55 °F 48 °F (2012)
Cooling Degree Days 2    
Growing Degree Days 17 (Base 50)    
Moisture  
Dew Point 60 °F    
Average Humidity 78    
Maximum Humidity 83    
Minimum Humidity 67    
Precipitation  
Precipitation 0.00 in - - ()
Sea Level Pressure  
Sea Level Pressure 29.91 in    
Wind  
Wind Speed 4 mph (SW)    
Max Wind Speed 13 mph    
Max Gust Speed -    
Visibility 7 miles    
Events      
Averages and records for this station are not official NWS values.
T = Trace of Precipitation, MM = Missing Value Source: NWS Daily Summary

Daily Weather History Graph

Daily Weather History Graph

Search for Another Location

Airport or City:

Trip Planner

Search our weather history database for the weather conditions in past years. The results will help you decide how hot, cold, wet, or windy it might be!

Date:

Astronomy

Jun. 24, 2013 Rise Set
Actual Time 5:46 AM PDT 8:11 PM PDT
Civil Twilight 5:16 AM PDT 8:41 PM PDT
Nautical Twilight 4:40 AM PDT 9:17 PM PDT
Astronomical Twilight 4:01 AM PDT 9:56 PM PDT
Moon 9:24 PM PDT (6/24) 7:14 AM PDT (6/24)
Length of Visible Light 15h 24m
Length of Day
14h 25m
Full, 97% of the Moon is Illuminated
Jun 24
Full
Jun 29
Last Quarter
Jul 8
New
Jul 15
First Quarter
Jul 22
Full

Hourly Weather History & Observations

Time (PDT) Temp. Dew Point Humidity Pressure Visibility Wind Dir Wind Speed Gust Speed Precip Events Conditions
12:01 AM - - N/A% - - Calm Calm - N/A   Scattered Clouds
12:54 AM - - N/A% - - Calm Calm - N/A   Clear
1:35 AM - - N/A% - - South 3.5 mph - N/A   Mostly Cloudy
1:54 AM - - N/A% - - South 4.6 mph - N/A   Overcast
2:54 AM - - N/A% - - East 3.5 mph - N/A   Overcast
3:47 AM - - N/A% - - NE 3.5 mph 187.6 mph N/A   Squalls
3:54 AM - - N/A% - - NNE 3.5 mph - N/A   Mostly Cloudy
4:22 AM - - N/A% - - Calm Calm - N/A   Overcast
4:54 AM - - N/A% - - Calm Calm - N/A   Overcast
5:54 AM 62.8 °F 57.0 °F 81% 29.86 in 7.0 mi NNE 5.8 mph - N/A   Mostly Cloudy
6:54 AM 63.3 °F 56.5 °F 78% 29.87 in 7.0 mi Calm Calm - N/A   Mostly Cloudy
7:49 AM 64.4 °F 59.0 °F 83% 29.89 in 7.0 mi South 4.6 mph - N/A   Mostly Cloudy
7:54 AM 64.9 °F 59.5 °F 83% 29.89 in 7.0 mi South 4.6 mph - N/A   Mostly Cloudy
8:54 AM 65.1 °F 59.5 °F 82% 29.92 in 7.0 mi SSW 3.5 mph - N/A   Mostly Cloudy
9:44 AM 66.2 °F 59.0 °F 78% 29.92 in 7.0 mi SSW 5.8 mph - N/A   Overcast
9:54 AM 66.9 °F 59.5 °F 77% 29.92 in 7.0 mi SSW 6.9 mph - N/A   Overcast
10:54 AM 67.5 °F 60.6 °F 79% 29.92 in 7.0 mi SW 8.1 mph - N/A   Mostly Cloudy
11:54 AM 69.8 °F 61.0 °F 73% 29.94 in 7.0 mi South 11.5 mph - N/A   Mostly Cloudy
12:54 PM 69.8 °F 61.3 °F 74% 29.94 in 7.0 mi SSW 11.5 mph - N/A   Mostly Cloudy
1:54 PM 70.7 °F 61.5 °F 73% 29.94 in 7.0 mi SSW 12.7 mph - N/A   Mostly Cloudy
2:54 PM 72.9 °F 61.5 °F 67% 29.92 in 7.0 mi SSW 11.5 mph - N/A   Mostly Cloudy
3:54 PM 68.2 °F 61.5 °F 79% 29.92 in 7.0 mi SW 11.5 mph - N/A   Mostly Cloudy
4:54 PM 68.2 °F 61.5 °F 79% 29.92 in 7.0 mi SW 8.1 mph - N/A   Mostly Cloudy
5:54 PM 68.2 °F 59.7 °F 74% 29.91 in 7.0 mi SSW 6.9 mph - N/A   Mostly Cloudy
6:54 PM 67.3 °F 58.3 °F 73% 29.91 in 7.0 mi WSW 8.1 mph - N/A   Mostly Cloudy
7:54 PM 67.3 °F 58.3 °F 73% 29.91 in 7.0 mi WSW 3.5 mph - N/A   Overcast
7:58 PM 64.4 °F 59.0 °F 83% 29.91 in 7.0 mi WSW 4.6 mph - N/A   Mostly Cloudy
8:54 PM 65.1 °F 58.3 °F 78% 29.91 in 7.0 mi SW 4.6 mph - N/A   Mostly Cloudy
9:54 PM 65.5 °F 60.1 °F 83% 29.94 in 7.0 mi West 8.1 mph - N/A   Mostly Cloudy
10:54 PM 65.1 °F 59.4 °F 82% 29.94 in 7.0 mi West 4.6 mph - 0.00 in   Scattered Clouds
11:17 PM - - N/A% - - Calm Calm - N/A   Scattered Clouds
11:30 PM - - N/A% - - West 4.6 mph - N/A   Mostly Cloudy
11:54 PM - - N/A% - - West 3.5 mph - N/A   Overcast